Time,TemperatureF,DewpointF,PressureIn,WindDirection,WindDirectionDegrees,WindSpeedMPH,WindSpeedGustMPH,Humidity,HourlyPrecipIn,Conditions,Clouds,dailyrainin,SoftwareType,DateUTC
2013-07-26 00:01:00,82.8,77.8,30.05,WSW,239,2.0,4.0,85,0.00,,,0.00,Wunderground v.1.15,2013-07-26 04:01:00,
2013-07-26 00:02:00,82.7,77.7,30.05,SW,235,3.0,4.0,85,0.00,,,0.00,Wunderground v.1.15,2013-07-26 04:02:00,
2013-07-26 00:03:00,82.7,77.7,30.05,WSW,257,5.0,5.0,85,0.00,,,0.00,Wunderground v.1.15,2013-07-26 04:03:00,
2013-07-26 00:05:00,82.7,77.7,30.05,WSW,240,3.0,6.0,85,0.00,,,0.00,Wunderground v.1.15,2013-07-26 04:05:00,
2013-07-26 00:07:00,82.6,77.6,30.05,SW,235,4.0,6.0,85,0.00,,,0.00,Wunderground v.1.15,2013-07-26 04:07:00,
2013-07-26 00:13:00,82.5,77.5,30.04,WSW,241,3.0,4.0,85,0.00,,,0.00,Wunderground v.1.15,2013-07-26 04:13:00,
2013-07-26 00:18:00,82.5,77.9,30.04,WSW,256,3.0,4.0,86,0.00,,,0.00,Wunderground v.1.15,2013-07-26 04:18:00,
2013-07-26 00:24:00,82.4,77.8,30.04,West,259,1.0,3.0,86,0.00,,,0.00,Wunderground v.1.15,2013-07-26 04:24:00,
2013-07-26 00:30:00,82.2,77.6,30.04,WSW,256,4.0,4.0,86,0.00,,,0.00,Wunderground v.1.15,2013-07-26 04:30:00,
2013-07-26 00:36:00,82.3,77.7,30.04,West,259,0.0,4.0,86,0.00,,,0.00,Wunderground v.1.15,2013-07-26 04:36:00,
2013-07-26 00:41:00,82.1,77.5,30.04,West,269,0.0,1.0,86,0.00,,,0.00,Wunderground v.1.15,2013-07-26 04:41:00,
2013-07-26 00:47:00,82.0,77.7,30.04,SW,234,0.0,2.0,87,0.00,,,0.00,Wunderground v.1.15,2013-07-26 04:47:00,
2013-07-26 00:53:00,82.0,77.7,30.04,West,276,2.0,2.0,87,0.00,,,0.00,Wunderground v.1.15,2013-07-26 04:53:00,
2013-07-26 00:58:00,81.9,77.6,30.04,WSW,257,2.0,3.0,87,0.00,,,0.00,Wunderground v.1.15,2013-07-26 04:58:00,
2013-07-26 01:04:00,81.9,77.6,30.04,SW,230,0.0,3.0,87,0.00,,,0.00,Wunderground v.1.15,2013-07-26 05:04:00,
2013-07-26 01:10:00,81.8,77.9,30.04,West,267,2.0,2.0,88,0.00,,,0.00,Wunderground v.1.15,2013-07-26 05:10:00,
2013-07-26 01:16:00,81.7,77.8,30.04,West,260,1.0,2.0,88,0.00,,,0.00,Wunderground v.1.15,2013-07-26 05:16:00,
2013-07-26 01:22:00,81.6,77.7,30.04,SW,235,2.0,2.0,88,0.00,,,0.00,Wunderground v.1.15,2013-07-26 05:22:00,
2013-07-26 01:28:00,81.5,77.6,30.04,WSW,242,2.0,2.0,88,0.00,,,0.00,Wunderground v.1.15,2013-07-26 05:28:00,
2013-07-26 01:34:00,81.5,77.6,30.04,SW,233,0.0,1.0,88,0.00,,,0.00,Wunderground v.1.15,2013-07-26 05:34:00,
2013-07-26 01:40:00,81.4,77.5,30.04,West,277,3.0,3.0,88,0.00,,,0.00,Wunderground v.1.15,2013-07-26 05:40:00,
2013-07-26 01:45:00,81.4,77.5,30.04,West,278,0.0,3.0,88,0.00,,,0.00,Wunderground v.1.15,2013-07-26 05:45:00,
2013-07-26 01:51:00,81.3,77.4,30.03,West,263,2.0,2.0,88,0.00,,,0.00,Wunderground v.1.15,2013-07-26 05:51:00,
2013-07-26 01:57:00,81.3,77.7,30.03,West,264,0.0,3.0,89,0.00,,,0.00,Wunderground v.1.15,2013-07-26 05:57:00,
2013-07-26 02:02:00,81.2,77.3,30.03,West,278,1.0,2.0,88,0.00,,,0.00,Wunderground v.1.15,2013-07-26 06:02:00,
2013-07-26 02:07:00,81.1,77.2,30.03,West,265,2.0,3.0,88,0.00,,,0.00,Wunderground v.1.15,2013-07-26 06:07:00,
2013-07-26 02:12:00,81.1,77.2,30.03,West,277,0.0,2.0,88,0.00,,,0.00,Wunderground v.1.15,2013-07-26 06:12:00,
2013-07-26 02:17:00,81.0,77.1,30.03,WNW,295,0.0,2.0,88,0.00,,,0.00,Wunderground v.1.15,2013-07-26 06:17:00,
2013-07-26 02:22:00,80.8,77.3,30.02,West,278,0.0,2.0,89,0.00,,,0.00,Wunderground v.1.15,2013-07-26 06:22:00,
2013-07-26 02:27:00,80.8,77.3,30.02,WSW,248,0.0,2.0,89,0.00,,,0.00,Wunderground v.1.15,2013-07-26 06:27:00,
2013-07-26 02:32:00,80.9,77.4,30.02,WNW,293,2.0,3.0,89,0.00,,,0.00,Wunderground v.1.15,2013-07-26 06:32:00,
2013-07-26 02:37:00,80.9,77.4,30.02,WNW,295,0.0,4.0,89,0.00,,,0.00,Wunderground v.1.15,2013-07-26 06:37:00,
2013-07-26 02:42:00,80.8,77.3,30.02,WNW,285,3.0,3.0,89,0.00,,,0.00,Wunderground v.1.15,2013-07-26 06:42:00,
2013-07-26 02:47:00,80.9,77.4,30.02,WSW,249,2.0,3.0,89,0.00,,,0.00,Wunderground v.1.15,2013-07-26 06:47:00,
2013-07-26 02:52:00,80.9,77.4,30.02,WSW,246,1.0,4.0,89,0.00,,,0.00,Wunderground v.1.15,2013-07-26 06:52:00,
2013-07-26 02:57:00,80.8,77.3,30.02,WNW,283,3.0,4.0,89,0.00,,,0.00,Wunderground v.1.15,2013-07-26 06:57:00,
2013-07-26 03:02:00,80.8,77.3,30.02,West,269,3.0,3.0,89,0.00,,,0.00,Wunderground v.1.15,2013-07-26 07:02:00,
2013-07-26 03:07:00,80.7,77.2,30.01,West,260,0.0,3.0,89,0.00,,,0.00,Wunderground v.1.15,2013-07-26 07:07:00,
2013-07-26 03:12:00,80.7,77.2,30.01,WSW,245,1.0,3.0,89,0.00,,,0.00,Wunderground v.1.15,2013-07-26 07:12:00,
2013-07-26 03:17:00,80.7,77.5,30.01,SW,231,2.0,3.0,90,0.00,,,0.00,Wunderground v.1.15,2013-07-26 07:17:00,
2013-07-26 03:22:00,80.6,77.4,30.01,West,264,1.0,3.0,90,0.00,,,0.00,Wunderground v.1.15,2013-07-26 07:22:00,
2013-07-26 03:27:00,80.6,77.4,30.01,SW,225,0.0,3.0,90,0.00,,,0.00,Wunderground v.1.15,2013-07-26 07:27:00,
2013-07-26 03:32:00,80.4,77.2,30.01,WSW,250,0.0,2.0,90,0.00,,,0.00,Wunderground v.1.15,2013-07-26 07:32:00,
2013-07-26 03:37:00,80.2,77.0,30.01,WSW,246,0.0,2.0,90,0.00,,,0.00,Wunderground v.1.15,2013-07-26 07:37:00,
2013-07-26 03:42:00,80.1,77.2,30.01,West,260,0.0,2.0,91,0.00,,,0.00,Wunderground v.1.15,2013-07-26 07:42:00,
2013-07-26 03:47:00,80.0,77.1,30.01,SW,223,1.0,2.0,91,0.00,,,0.00,Wunderground v.1.15,2013-07-26 07:47:00,
2013-07-26 03:52:00,79.9,77.0,30.01,West,259,2.0,4.0,91,0.00,,,0.00,Wunderground v.1.15,2013-07-26 07:52:00,
2013-07-26 03:57:00,79.9,77.0,30.01,WSW,257,0.0,4.0,91,0.00,,,0.00,Wunderground v.1.15,2013-07-26 07:57:00,
2013-07-26 04:02:00,79.9,77.0,30.00,SW,225,0.0,3.0,91,0.00,,,0.00,Wunderground v.1.15,2013-07-26 08:02:00,
2013-07-26 04:07:00,79.9,77.0,30.00,West,263,0.0,3.0,91,0.00,,,0.00,Wunderground v.1.15,2013-07-26 08:07:00,
2013-07-26 04:12:00,79.9,77.0,30.00,SW,235,2.0,3.0,91,0.00,,,0.00,Wunderground v.1.15,2013-07-26 08:12:00,
2013-07-26 04:17:00,79.9,77.0,30.00,West,267,1.0,3.0,91,0.00,,,0.00,Wunderground v.1.15,2013-07-26 08:17:00,
2013-07-26 04:22:00,79.8,76.9,30.01,West,273,0.0,1.0,91,0.00,,,0.00,Wunderground v.1.15,2013-07-26 08:22:00,
2013-07-26 04:27:00,79.7,76.8,30.00,SW,235,0.0,2.0,91,0.00,,,0.00,Wunderground v.1.15,2013-07-26 08:27:00,
2013-07-26 04:32:00,79.6,76.7,30.00,SW,235,0.0,1.0,91,0.00,,,0.00,Wunderground v.1.15,2013-07-26 08:32:00,
2013-07-26 04:37:00,79.6,76.7,30.00,WSW,257,0.0,1.0,91,0.00,,,0.00,Wunderground v.1.15,2013-07-26 08:37:00,
2013-07-26 04:42:00,79.5,76.6,30.00,WSW,242,0.0,1.0,91,0.00,,,0.00,Wunderground v.1.15,2013-07-26 08:42:00,
2013-07-26 04:47:00,79.5,77.0,30.00,West,265,0.0,1.0,92,0.00,,,0.00,Wunderground v.1.15,2013-07-26 08:47:00,
2013-07-26 04:52:00,79.4,76.5,30.00,WSW,252,1.0,2.0,91,0.00,,,0.00,Wunderground v.1.15,2013-07-26 08:52:00,
2013-07-26 04:57:00,79.5,77.0,30.00,West,260,0.0,2.0,92,0.00,,,0.00,Wunderground v.1.15,2013-07-26 08:57:00,
2013-07-26 05:02:00,79.5,76.6,30.00,SW,231,3.0,3.0,91,0.00,,,0.00,Wunderground v.1.15,2013-07-26 09:02:00,
2013-07-26 05:08:00,79.6,76.7,30.01,West,259,2.0,3.0,91,0.00,,,0.00,Wunderground v.1.15,2013-07-26 09:08:00,
2013-07-26 05:13:00,79.7,76.8,30.01,West,264,3.0,4.0,91,0.00,,,0.00,Wunderground v.1.15,2013-07-26 09:13:00,
2013-07-26 05:18:00,79.8,76.6,30.01,West,259,0.0,4.0,90,0.00,,,0.00,Wunderground v.1.15,2013-07-26 09:18:00,
2013-07-26 05:23:00,79.8,76.9,30.02,WNW,284,2.0,4.0,91,0.00,,,0.00,Wunderground v.1.15,2013-07-26 09:23:00,
2013-07-26 05:28:00,79.9,76.7,30.02,West,269,1.0,4.0,90,0.00,,,0.00,Wunderground v.1.15,2013-07-26 09:28:00,
2013-07-26 05:33:00,79.9,76.7,30.02,WSW,255,1.0,3.0,90,0.00,,,0.00,Wunderground v.1.15,2013-07-26 09:33:00,
2013-07-26 05:38:00,79.9,76.7,30.02,WNW,291,0.0,3.0,90,0.00,,,0.00,Wunderground v.1.15,2013-07-26 09:38:00,
2013-07-26 05:43:00,79.9,76.7,30.02,West,270,3.0,3.0,90,0.00,,,0.00,Wunderground v.1.15,2013-07-26 09:43:00,
2013-07-26 05:48:00,80.1,76.6,30.02,WSW,242,0.0,4.0,89,0.00,,,0.00,Wunderground v.1.15,2013-07-26 09:48:00,
2013-07-26 05:53:00,80.1,76.6,30.02,SW,233,0.0,3.0,89,0.00,,,0.00,Wunderground v.1.15,2013-07-26 09:53:00,
2013-07-26 05:58:00,80.1,76.9,30.02,West,260,1.0,3.0,90,0.00,,,0.00,Wunderground v.1.15,2013-07-26 09:58:00,
2013-07-26 06:03:00,80.0,76.8,30.02,WSW,249,0.0,2.0,90,0.00,,,0.00,Wunderground v.1.15,2013-07-26 10:03:00,
2013-07-26 06:08:00,79.9,76.4,30.02,WSW,253,0.0,2.0,89,0.00,,,0.00,Wunderground v.1.15,2013-07-26 10:08:00,
2013-07-26 06:13:00,79.8,76.6,30.02,WSW,243,1.0,2.0,90,0.00,,,0.00,Wunderground v.1.15,2013-07-26 10:13:00,
2013-07-26 06:18:00,79.6,76.4,30.02,WSW,240,2.0,2.0,90,0.00,,,0.00,Wunderground v.1.15,2013-07-26 10:18:00,
2013-07-26 06:23:00,79.6,76.7,30.03,WSW,256,0.0,2.0,91,0.00,,,0.00,Wunderground v.1.15,2013-07-26 10:23:00,
2013-07-26 06:28:00,79.5,76.3,30.03,West,266,0.0,2.0,90,0.00,,,0.00,Wunderground v.1.15,2013-07-26 10:28:00,
2013-07-26 06:33:00,79.5,76.6,30.03,West,278,2.0,2.0,91,0.00,,,0.00,Wunderground v.1.15,2013-07-26 10:33:00,
2013-07-26 06:38:00,79.6,76.7,30.03,WSW,253,0.0,2.0,91,0.00,,,0.00,Wunderground v.1.15,2013-07-26 10:38:00,
2013-07-26 06:43:00,79.5,76.3,30.03,West,267,0.0,1.0,90,0.00,,,0.00,Wunderground v.1.15,2013-07-26 10:43:00,
2013-07-26 06:48:00,79.4,76.5,30.03,WSW,249,0.0,2.0,91,0.00,,,0.00,Wunderground v.1.15,2013-07-26 10:48:00,
2013-07-26 06:53:00,79.6,76.7,30.03,West,278,0.0,1.0,91,0.00,,,0.00,Wunderground v.1.15,2013-07-26 10:53:00,
2013-07-26 06:58:00,79.6,76.7,30.03,WSW,255,0.0,2.0,91,0.00,,,0.00,Wunderground v.1.15,2013-07-26 10:58:00,
2013-07-26 07:03:00,79.6,76.7,30.04,WNW,288,1.0,3.0,91,0.00,,,0.00,Wunderground v.1.15,2013-07-26 11:03:00,
2013-07-26 07:08:00,79.6,76.7,30.04,WSW,253,1.0,3.0,91,0.00,,,0.00,Wunderground v.1.15,2013-07-26 11:08:00,
2013-07-26 07:14:00,79.6,76.7,30.04,WSW,243,0.0,2.0,91,0.00,,,0.00,Wunderground v.1.15,2013-07-26 11:14:00,
2013-07-26 07:19:00,79.5,76.6,30.04,WSW,238,2.0,2.0,91,0.00,,,0.00,Wunderground v.1.15,2013-07-26 11:19:00,
2013-07-26 07:24:00,79.6,76.7,30.04,WSW,252,0.0,3.0,91,0.00,,,0.00,Wunderground v.1.15,2013-07-26 11:24:00,
2013-07-26 07:29:00,79.8,76.9,30.04,West,267,0.0,3.0,91,0.00,,,0.00,Wunderground v.1.15,2013-07-26 11:29:00,
2013-07-26 07:34:00,79.9,77.0,30.04,SW,225,0.0,2.0,91,0.00,,,0.00,Wunderground v.1.15,2013-07-26 11:34:00,
2013-07-26 07:39:00,80.1,77.2,30.04,West,266,0.0,3.0,91,0.00,,,0.00,Wunderground v.1.15,2013-07-26 11:39:00,
2013-07-26 07:44:00,80.1,76.9,30.04,West,261,2.0,4.0,90,0.00,,,0.00,Wunderground v.1.15,2013-07-26 11:44:00,
2013-07-26 07:49:00,80.2,77.0,30.04,SW,231,1.0,4.0,90,0.00,,,0.00,Wunderground v.1.15,2013-07-26 11:49:00,
2013-07-26 07:54:00,80.2,77.0,30.04,WSW,243,3.0,5.0,90,0.00,,,0.00,Wunderground v.1.15,2013-07-26 11:54:00,
2013-07-26 07:59:00,80.3,77.1,30.05,West,267,2.0,5.0,90,0.00,,,0.00,Wunderground v.1.15,2013-07-26 11:59:00,
2013-07-26 08:04:00,80.4,77.2,30.05,WSW,253,0.0,4.0,90,0.00,,,0.00,Wunderground v.1.15,2013-07-26 12:04:00,
2013-07-26 08:09:00,80.4,77.2,30.05,WSW,249,2.0,4.0,90,0.00,,,0.00,Wunderground v.1.15,2013-07-26 12:09:00,
2013-07-26 08:14:00,80.4,76.9,30.04,SW,236,1.0,4.0,89,0.00,,,0.00,Wunderground v.1.15,2013-07-26 12:14:00,
2013-07-26 08:19:00,80.5,77.3,30.04,WSW,246,2.0,4.0,90,0.00,,,0.00,Wunderground v.1.15,2013-07-26 12:19:00,
2013-07-26 08:24:00,80.6,77.1,30.04,West,266,2.0,3.0,89,0.00,,,0.00,Wunderground v.1.15,2013-07-26 12:24:00,
2013-07-26 08:30:00,80.8,77.3,30.05,SW,226,0.0,1.0,89,0.00,,,0.00,Wunderground v.1.15,2013-07-26 12:30:00,
2013-07-26 08:35:00,81.0,77.4,30.05,WSW,252,2.0,6.0,89,0.00,,,0.00,Wunderground v.1.15,2013-07-26 12:35:00,
2013-07-26 08:40:00,81.1,77.2,30.04,SW,224,0.0,2.0,88,0.00,,,0.00,Wunderground v.1.15,2013-07-26 12:40:00,
2013-07-26 08:45:00,81.4,77.5,30.04,WSW,252,4.0,4.0,88,0.00,,,0.00,Wunderground v.1.15,2013-07-26 12:45:00,
2013-07-26 08:50:00,81.6,77.4,30.05,WSW,256,3.0,3.0,87,0.00,,,0.00,Wunderground v.1.15,2013-07-26 12:50:00,
2013-07-26 08:55:00,81.8,77.5,30.05,SSW,201,2.0,6.0,87,0.00,,,0.00,Wunderground v.1.15,2013-07-26 12:55:00,
2013-07-26 09:00:00,81.9,77.3,30.05,WSW,252,5.0,5.0,86,0.00,,,0.00,Wunderground v.1.15,2013-07-26 13:00:00,
2013-07-26 09:05:00,82.0,77.0,30.05,WSW,240,1.0,7.0,85,0.00,,,0.00,Wunderground v.1.15,2013-07-26 13:05:00,
2013-07-26 09:10:00,82.4,77.4,30.05,West,264,2.0,3.0,85,0.00,,,0.00,Wunderground v.1.15,2013-07-26 13:10:00,
2013-07-26 09:15:00,82.5,77.2,30.05,West,265,3.0,7.0,84,0.00,,,0.00,Wunderground v.1.15,2013-07-26 13:15:00,
2013-07-26 09:20:00,82.8,77.5,30.06,West,279,4.0,5.0,84,0.00,,,0.00,Wunderground v.1.15,2013-07-26 13:20:00,
2013-07-26 09:25:00,83.2,77.5,30.05,West,277,6.0,8.0,83,0.00,,,0.00,Wunderground v.1.15,2013-07-26 13:25:00,
2013-07-26 09:30:00,83.6,77.5,30.05,West,260,4.0,4.0,82,0.00,,,0.00,Wunderground v.1.15,2013-07-26 13:30:00,
2013-07-26 09:35:00,83.8,77.3,30.05,West,262,2.0,11.0,81,0.00,,,0.00,Wunderground v.1.15,2013-07-26 13:35:00,
2013-07-26 09:40:00,84.2,77.7,30.05,WNW,282,0.0,4.0,81,0.00,,,0.00,Wunderground v.1.15,2013-07-26 13:40:00,
2013-07-26 09:45:00,84.7,77.5,30.05,WNW,283,4.0,8.0,79,0.00,,,0.00,Wunderground v.1.15,2013-07-26 13:45:00,
2013-07-26 09:50:00,84.7,76.3,30.05,WNW,283,8.0,8.0,76,0.00,,,0.00,Wunderground v.1.15,2013-07-26 13:50:00,
2013-07-26 09:55:00,84.7,76.7,30.05,West,264,4.0,10.0,77,0.00,,,0.00,Wunderground v.1.15,2013-07-26 13:55:00,
2013-07-26 10:00:00,84.7,76.3,30.05,West,278,5.0,5.0,76,0.00,,,0.00,Wunderground v.1.15,2013-07-26 14:00:00,
2013-07-26 10:05:00,84.7,76.7,30.05,West,264,3.0,10.0,77,0.00,,,0.00,Wunderground v.1.15,2013-07-26 14:05:00,
2013-07-26 10:10:00,84.9,76.9,30.05,WNW,300,4.0,6.0,77,0.00,,,0.00,Wunderground v.1.15,2013-07-26 14:10:00,
2013-07-26 10:15:00,85.1,75.9,30.05,West,269,5.0,9.0,74,0.00,,,0.00,Wunderground v.1.15,2013-07-26 14:15:00,
2013-07-26 10:21:00,85.3,76.1,30.05,WSW,249,3.0,5.0,74,0.00,,,0.00,Wunderground v.1.15,2013-07-26 14:21:00,
2013-07-26 10:25:00,85.3,76.5,30.05,WNW,296,2.0,6.0,75,0.00,,,0.00,Wunderground v.1.15,2013-07-26 14:25:00,
2013-07-26 10:30:00,85.3,76.1,30.05,WSW,256,2.0,5.0,74,0.00,,,0.00,Wunderground v.1.15,2013-07-26 14:30:00,
2013-07-26 10:36:00,85.2,76.4,30.05,West,269,5.0,9.0,75,0.00,,,0.00,Wunderground v.1.15,2013-07-26 14:36:00,
2013-07-26 10:41:00,85.2,76.8,30.05,West,271,6.0,7.0,76,0.00,,,0.00,Wunderground v.1.15,2013-07-26 14:41:00,
2013-07-26 10:46:00,85.4,77.0,30.05,West,280,4.0,8.0,76,0.00,,,0.00,Wunderground v.1.15,2013-07-26 14:46:00,
2013-07-26 10:51:00,85.5,77.1,30.05,West,263,1.0,5.0,76,0.00,,,0.00,Wunderground v.1.15,2013-07-26 14:51:00,
2013-07-26 10:56:00,85.8,77.0,30.04,West,260,9.0,9.0,75,0.00,,,0.00,Wunderground v.1.15,2013-07-26 14:56:00,
2013-07-26 11:01:00,85.5,77.1,30.04,WSW,255,8.0,8.0,76,0.00,,,0.00,Wunderground v.1.15,2013-07-26 15:01:00,
2013-07-26 11:06:00,85.4,77.0,30.04,WSW,252,6.0,10.0,76,0.00,,,0.00,Wunderground v.1.15,2013-07-26 15:06:00,
2013-07-26 11:12:00,85.4,76.6,30.04,West,269,2.0,9.0,75,0.00,,,0.00,Wunderground v.1.15,2013-07-26 15:12:00,
2013-07-26 11:17:00,85.7,77.3,30.04,WSW,257,7.0,11.0,76,0.00,,,0.00,Wunderground v.1.15,2013-07-26 15:17:00,
2013-07-26 11:22:00,85.6,76.8,30.04,West,277,5.0,9.0,75,0.00,,,0.00,Wunderground v.1.15,2013-07-26 15:22:00,
2013-07-26 11:27:00,85.5,77.1,30.04,West,263,7.0,9.0,76,0.00,,,0.00,Wunderground v.1.15,2013-07-26 15:27:00,
2013-07-26 11:32:00,85.3,76.9,30.04,West,267,4.0,9.0,76,0.00,,,0.00,Wunderground v.1.15,2013-07-26 15:32:00,
2013-07-26 11:37:00,85.2,76.8,30.04,West,279,6.0,9.0,76,0.00,,,0.00,Wunderground v.1.15,2013-07-26 15:37:00,
2013-07-26 11:42:00,85.4,77.4,30.04,WSW,257,5.0,8.0,77,0.00,,,0.00,Wunderground v.1.15,2013-07-26 15:42:00,
2013-07-26 11:47:00,85.3,77.3,30.04,West,269,6.0,8.0,77,0.00,,,0.00,Wunderground v.1.15,2013-07-26 15:47:00,
2013-07-26 11:52:00,85.4,77.0,30.04,WSW,255,7.0,10.0,76,0.00,,,0.00,Wunderground v.1.15,2013-07-26 15:52:00,
2013-07-26 11:57:00,85.5,77.1,30.04,WSW,245,4.0,10.0,76,0.00,,,0.00,Wunderground v.1.15,2013-07-26 15:57:00,
2013-07-26 12:02:00,85.6,77.2,30.04,West,263,4.0,7.0,76,0.00,,,0.00,Wunderground v.1.15,2013-07-26 16:02:00,
2013-07-26 12:07:00,85.9,77.5,30.04,West,264,6.0,11.0,76,0.00,,,0.00,Wunderground v.1.15,2013-07-26 16:07:00,
2013-07-26 12:12:00,86.1,77.6,30.04,WSW,257,5.0,7.0,76,0.00,,,0.00,Wunderground v.1.15,2013-07-26 16:12:00,
2013-07-26 12:17:00,86.2,76.9,30.04,West,269,7.0,10.0,74,0.00,,,0.00,Wunderground v.1.15,2013-07-26 16:17:00,
2013-07-26 12:22:00,86.4,77.1,30.04,WNW,290,2.0,6.0,74,0.00,,,0.00,Wunderground v.1.15,2013-07-26 16:22:00,
2013-07-26 12:27:00,86.6,77.3,30.04,West,264,9.0,9.0,74,0.00,,,0.00,Wunderground v.1.15,2013-07-26 16:27:00,
2013-07-26 12:32:00,86.6,77.7,30.04,West,263,6.0,7.0,75,0.00,,,0.00,Wunderground v.1.15,2013-07-26 16:32:00,
2013-07-26 12:37:00,86.6,77.7,30.04,WSW,243,4.0,8.0,75,0.00,,,0.00,Wunderground v.1.15,2013-07-26 16:37:00,
2013-07-26 12:42:00,86.9,77.6,30.03,WNW,291,6.0,6.0,74,0.00,,,0.00,Wunderground v.1.15,2013-07-26 16:42:00,
2013-07-26 12:47:00,87.4,77.7,30.03,West,275,5.0,8.0,73,0.00,,,0.00,Wunderground v.1.15,2013-07-26 16:47:00,
2013-07-26 12:53:00,87.4,76.8,30.03,West,278,1.0,7.0,71,0.00,,,0.00,Wunderground v.1.15,2013-07-26 16:53:00,
2013-07-26 12:58:00,87.3,77.6,30.03,West,264,2.0,8.0,73,0.00,,,0.00,Wunderground v.1.15,2013-07-26 16:58:00,
2013-07-26 13:03:00,87.2,77.1,30.03,WSW,257,4.0,9.0,72,0.00,,,0.00,Wunderground v.1.15,2013-07-26 17:03:00,
2013-07-26 13:08:00,87.4,76.4,30.03,WNW,284,5.0,9.0,70,0.00,,,0.00,Wunderground v.1.15,2013-07-26 17:08:00,
2013-07-26 13:13:00,87.5,75.6,30.02,SW,228,8.0,8.0,68,0.00,,,0.00,Wunderground v.1.15,2013-07-26 17:13:00,
2013-07-26 13:18:00,87.8,76.4,30.02,WSW,239,5.0,9.0,69,0.00,,,0.00,Wunderground v.1.15,2013-07-26 17:18:00,
2013-07-26 13:23:00,87.9,76.5,30.02,SW,236,4.0,8.0,69,0.00,,,0.00,Wunderground v.1.15,2013-07-26 17:23:00,
2013-07-26 13:29:00,88.4,77.4,30.02,SW,236,3.0,8.0,70,0.00,,,0.00,Wunderground v.1.15,2013-07-26 17:29:00,
2013-07-26 13:34:00,88.6,77.1,30.02,SSW,211,4.0,7.0,69,0.00,,,0.00,Wunderground v.1.15,2013-07-26 17:34:00,
2013-07-26 13:39:00,88.9,77.0,30.02,SW,232,5.0,8.0,68,0.00,,,0.00,Wunderground v.1.15,2013-07-26 17:39:00,
2013-07-26 13:44:00,88.9,77.4,30.02,West,270,3.0,8.0,69,0.00,,,0.00,Wunderground v.1.15,2013-07-26 17:44:00,
2013-07-26 13:49:00,88.4,76.9,30.02,SW,231,3.0,10.0,69,0.00,,,0.00,Wunderground v.1.15,2013-07-26 17:49:00,
2013-07-26 13:54:00,88.7,77.7,30.02,West,269,5.0,11.0,70,0.00,,,0.00,Wunderground v.1.15,2013-07-26 17:54:00,
2013-07-26 13:59:00,88.9,76.5,30.02,WSW,246,4.0,11.0,67,0.00,,,0.00,Wunderground v.1.15,2013-07-26 17:59:00,
2013-07-26 14:04:00,88.7,77.7,30.02,WNW,288,4.0,11.0,70,0.00,,,0.00,Wunderground v.1.15,2013-07-26 18:04:00,
2013-07-26 14:09:00,88.9,77.4,30.02,WNW,282,7.0,11.0,69,0.00,,,0.00,Wunderground v.1.15,2013-07-26 18:09:00,
2013-07-26 14:14:00,88.7,77.7,30.02,WSW,245,3.0,10.0,70,0.00,,,0.00,Wunderground v.1.15,2013-07-26 18:14:00,
2013-07-26 14:19:00,88.9,77.0,30.01,West,266,8.0,13.0,68,0.00,,,0.00,Wunderground v.1.15,2013-07-26 18:19:00,
2013-07-26 14:24:00,89.0,77.1,30.01,SSW,210,8.0,10.0,68,0.00,,,0.00,Wunderground v.1.15,2013-07-26 18:24:00,
2013-07-26 14:29:00,89.3,77.3,30.01,West,276,4.0,13.0,68,0.00,,,0.00,Wunderground v.1.15,2013-07-26 18:29:00,
2013-07-26 14:34:00,89.5,76.6,30.01,WSW,257,6.0,11.0,66,0.00,,,0.00,Wunderground v.1.15,2013-07-26 18:34:00,
2013-07-26 14:39:00,89.8,76.9,30.00,WSW,258,5.0,11.0,66,0.00,,,0.00,Wunderground v.1.15,2013-07-26 18:39:00,
2013-07-26 14:44:00,89.7,76.8,30.00,WNW,282,6.0,13.0,66,0.00,,,0.00,Wunderground v.1.15,2013-07-26 18:44:00,
2013-07-26 14:49:00,89.6,77.2,30.00,SW,228,3.0,13.0,67,0.00,,,0.00,Wunderground v.1.15,2013-07-26 18:49:00,
2013-07-26 14:54:00,90.0,77.1,30.00,WSW,246,6.0,11.0,66,0.00,,,0.00,Wunderground v.1.15,2013-07-26 18:54:00,
2013-07-26 14:59:00,90.0,77.6,30.00,West,269,2.0,11.0,67,0.00,,,0.00,Wunderground v.1.15,2013-07-26 18:59:00,
2013-07-26 15:04:00,90.4,77.9,30.00,SW,215,6.0,9.0,67,0.00,,,0.00,Wunderground v.1.15,2013-07-26 19:04:00,
2013-07-26 15:09:00,90.7,76.4,30.00,West,268,11.0,14.0,63,0.00,,,0.00,Wunderground v.1.15,2013-07-26 19:09:00,
2013-07-26 15:14:00,90.3,76.5,29.99,SW,229,8.0,11.0,64,0.00,,,0.00,Wunderground v.1.15,2013-07-26 19:14:00,
2013-07-26 15:19:00,90.3,76.5,29.99,West,273,5.0,12.0,64,0.00,,,0.00,Wunderground v.1.15,2013-07-26 19:19:00,
2013-07-26 15:24:00,90.2,75.9,29.99,West,274,2.0,9.0,63,0.00,,,0.00,Wunderground v.1.15,2013-07-26 19:24:00,
2013-07-26 15:29:00,90.2,76.8,29.99,WSW,251,7.0,10.0,65,0.00,,,0.00,Wunderground v.1.15,2013-07-26 19:29:00,
2013-07-26 15:34:00,90.2,76.8,29.99,SW,224,2.0,9.0,65,0.00,,,0.00,Wunderground v.1.15,2013-07-26 19:34:00,
2013-07-26 15:39:00,90.5,76.7,29.99,SW,217,5.0,10.0,64,0.00,,,0.00,Wunderground v.1.15,2013-07-26 19:39:00,
2013-07-26 15:44:00,90.7,76.4,29.99,West,269,4.0,11.0,63,0.00,,,0.00,Wunderground v.1.15,2013-07-26 19:44:00,
2013-07-26 15:49:00,90.4,76.6,29.98,SW,226,2.0,11.0,64,0.00,,,0.00,Wunderground v.1.15,2013-07-26 19:49:00,
2013-07-26 15:54:00,90.4,77.0,29.98,West,278,4.0,10.0,65,0.00,,,0.00,Wunderground v.1.15,2013-07-26 19:54:00,
2013-07-26 15:59:00,90.4,76.6,29.98,WSW,257,9.0,10.0,64,0.00,,,0.00,Wunderground v.1.15,2013-07-26 19:59:00,
2013-07-26 16:04:00,90.9,77.0,29.98,SW,236,6.0,9.0,64,0.00,,,0.00,Wunderground v.1.15,2013-07-26 20:04:00,
2013-07-26 16:09:00,91.0,77.6,29.98,West,262,0.0,9.0,65,0.00,,,0.00,Wunderground v.1.15,2013-07-26 20:09:00,
2013-07-26 16:14:00,91.0,77.6,29.98,WSW,240,7.0,9.0,65,0.00,,,0.00,Wunderground v.1.15,2013-07-26 20:14:00,
2013-07-26 16:19:00,90.9,76.6,29.98,SW,222,3.0,10.0,63,0.00,,,0.00,Wunderground v.1.15,2013-07-26 20:19:00,
2013-07-26 16:24:00,90.9,76.6,29.98,WSW,242,5.0,12.0,63,0.00,,,0.00,Wunderground v.1.15,2013-07-26 20:24:00,
2013-07-26 16:29:00,91.0,76.2,29.98,NW,313,4.0,12.0,62,0.00,,,0.00,Wunderground v.1.15,2013-07-26 20:29:00,
2013-07-26 16:34:00,90.8,76.9,29.97,West,267,5.0,10.0,64,0.00,,,0.00,Wunderground v.1.15,2013-07-26 20:34:00,
2013-07-26 16:39:00,91.1,76.3,29.97,West,278,7.0,13.0,62,0.00,,,0.00,Wunderground v.1.15,2013-07-26 20:39:00,
2013-07-26 16:44:00,91.5,77.6,29.97,WNW,290,7.0,10.0,64,0.00,,,0.00,Wunderground v.1.15,2013-07-26 20:44:00,
2013-07-26 16:49:00,91.5,77.6,29.97,West,266,5.0,11.0,64,0.00,,,0.00,Wunderground v.1.15,2013-07-26 20:49:00,
2013-07-26 16:54:00,91.6,77.2,29.97,West,261,6.0,10.0,63,0.00,,,0.00,Wunderground v.1.15,2013-07-26 20:54:00,
2013-07-26 16:59:00,91.6,78.2,29.97,West,273,6.0,10.0,65,0.00,,,0.00,Wunderground v.1.15,2013-07-26 20:59:00,
2013-07-26 17:04:00,91.4,77.5,29.97,WSW,246,9.0,11.0,64,0.00,,,0.00,Wunderground v.1.15,2013-07-26 21:04:00,
2013-07-26 17:09:00,91.1,77.7,29.97,WNW,292,5.0,11.0,65,0.00,,,0.00,Wunderground v.1.15,2013-07-26 21:09:00,
2013-07-26 17:14:00,91.4,77.5,29.97,West,273,10.0,12.0,64,0.00,,,0.00,Wunderground v.1.15,2013-07-26 21:14:00,
2013-07-26 17:19:00,91.4,77.0,29.96,SW,228,9.0,13.0,63,0.00,,,0.00,Wunderground v.1.15,2013-07-26 21:19:00,
2013-07-26 17:24:00,91.6,77.2,29.96,West,277,8.0,13.0,63,0.00,,,0.00,Wunderground v.1.15,2013-07-26 21:24:00,
2013-07-26 17:29:00,91.5,77.1,29.96,WSW,258,10.0,13.0,63,0.00,,,0.00,Wunderground v.1.15,2013-07-26 21:29:00,
2013-07-26 17:34:00,90.8,77.9,29.96,West,266,11.0,17.0,66,0.00,,,0.00,Wunderground v.1.15,2013-07-26 21:34:00,
2013-07-26 17:39:00,90.3,77.4,29.96,WNW,282,10.0,17.0,66,0.00,,,0.00,Wunderground v.1.15,2013-07-26 21:39:00,
2013-07-26 17:44:00,90.1,77.7,29.96,West,277,5.0,14.0,67,0.00,,,0.00,Wunderground v.1.15,2013-07-26 21:44:00,
2013-07-26 17:49:00,89.7,76.8,29.96,West,259,6.0,14.0,66,0.00,,,0.00,Wunderground v.1.15,2013-07-26 21:49:00,
2013-07-26 17:54:00,89.6,77.2,29.96,WSW,258,8.0,10.0,67,0.00,,,0.00,Wunderground v.1.15,2013-07-26 21:54:00,
2013-07-26 17:59:00,89.9,77.5,29.96,WSW,258,4.0,14.0,67,0.00,,,0.00,Wunderground v.1.15,2013-07-26 21:59:00,
2013-07-26 18:04:00,90.1,77.7,29.96,West,264,6.0,11.0,67,0.00,,,0.00,Wunderground v.1.15,2013-07-26 22:04:00,
2013-07-26 18:09:00,90.3,77.8,29.95,WNW,287,4.0,13.0,67,0.00,,,0.00,Wunderground v.1.15,2013-07-26 22:09:00,
2013-07-26 18:14:00,90.2,77.8,29.95,SW,214,4.0,13.0,67,0.00,,,0.00,Wunderground v.1.15,2013-07-26 22:14:00,
2013-07-26 18:19:00,90.6,77.2,29.96,West,259,6.0,13.0,65,0.00,,,0.00,Wunderground v.1.15,2013-07-26 22:19:00,
2013-07-26 18:24:00,90.7,77.8,29.96,West,270,6.0,13.0,66,0.00,,,0.00,Wunderground v.1.15,2013-07-26 22:24:00,
2013-07-26 18:29:00,90.5,76.7,29.96,WSW,244,5.0,13.0,64,0.00,,,0.00,Wunderground v.1.15,2013-07-26 22:29:00,
2013-07-26 18:34:00,90.0,76.6,29.96,West,278,8.0,11.0,65,0.00,,,0.00,Wunderground v.1.15,2013-07-26 22:34:00,
2013-07-26 18:39:00,89.4,76.5,29.98,WSW,257,7.0,16.0,66,0.00,,,0.00,Wunderground v.1.15,2013-07-26 22:39:00,
2013-07-26 18:44:00,89.1,76.3,29.99,West,277,8.0,13.0,66,0.00,,,0.00,Wunderground v.1.15,2013-07-26 22:44:00,
2013-07-26 18:49:00,89.1,76.7,30.00,WNW,301,7.0,13.0,67,0.00,,,0.00,Wunderground v.1.15,2013-07-26 22:49:00,
2013-07-26 18:54:00,88.9,76.1,29.99,West,262,8.0,11.0,66,0.00,,,0.00,Wunderground v.1.15,2013-07-26 22:54:00,
2013-07-26 18:59:00,88.8,76.9,29.98,WNW,285,12.0,12.0,68,0.00,,,0.00,Wunderground v.1.15,2013-07-26 22:59:00,
2013-07-26 19:04:00,88.7,77.2,29.98,West,264,10.0,11.0,69,0.00,,,0.00,Wunderground v.1.15,2013-07-26 23:04:00,
2013-07-26 19:09:00,88.5,77.0,29.99,ESE,118,3.0,12.0,69,0.00,,,0.00,Wunderground v.1.15,2013-07-26 23:09:00,
2013-07-26 19:14:00,86.1,74.3,30.00,WNW,294,0.0,7.0,68,0.00,,,0.00,Wunderground v.1.15,2013-07-26 23:14:00,
2013-07-26 19:19:00,83.5,73.5,30.00,ENE,65,2.0,9.0,72,0.00,,,0.00,Wunderground v.1.15,2013-07-26 23:19:00,
2013-07-26 19:24:00,82.0,73.7,30.01,NW,314,0.0,11.0,76,0.00,,,0.00,Wunderground v.1.15,2013-07-26 23:24:00,
2013-07-26 19:29:00,81.2,73.3,30.02,East,82,0.0,11.0,77,0.00,,,0.00,Wunderground v.1.15,2013-07-26 23:29:00,
2013-07-26 19:34:00,80.1,73.4,30.02,NNE,18,0.0,8.0,80,0.00,,,0.00,Wunderground v.1.15,2013-07-26 23:34:00,
2013-07-26 19:39:00,78.8,73.9,30.02,WNW,287,0.0,8.0,85,0.00,,,0.00,Wunderground v.1.15,2013-07-26 23:39:00,
2013-07-26 19:44:00,77.8,73.6,30.02,ENE,68,0.0,7.0,87,0.00,,,0.01,Wunderground v.1.15,2013-07-26 23:44:00,
2013-07-26 19:49:00,77.4,73.9,30.02,NW,325,0.0,7.0,89,0.00,,,0.01,Wunderground v.1.15,2013-07-26 23:49:00,
2013-07-26 19:54:00,77.1,73.9,30.02,West,274,0.0,2.0,90,0.08,,,0.02,Wunderground v.1.15,2013-07-26 23:54:00,
2013-07-26 19:59:00,77.0,74.2,30.02,WNW,301,0.0,2.0,91,0.06,,,0.02,Wunderground v.1.15,2013-07-26 23:59:00,
2013-07-26 20:04:00,76.9,74.4,30.01,NW,316,0.0,3.0,92,0.04,,,0.02,Wunderground v.1.15,2013-07-27 00:04:00,
2013-07-26 20:09:00,76.8,74.3,30.01,NW,313,0.0,3.0,92,0.00,,,0.02,Wunderground v.1.15,2013-07-27 00:09:00,
2013-07-26 20:14:00,77.0,74.8,30.01,West,269,3.0,4.0,93,0.00,,,0.02,Wunderground v.1.15,2013-07-27 00:14:00,
2013-07-26 20:19:00,77.1,74.9,30.00,West,266,0.0,4.0,93,0.00,,,0.02,Wunderground v.1.15,2013-07-27 00:19:00,
2013-07-26 20:24:00,77.3,75.1,30.00,WNW,288,2.0,6.0,93,0.00,,,0.02,Wunderground v.1.15,2013-07-27 00:24:00,
2013-07-26 20:29:00,77.5,75.3,30.00,West,277,1.0,6.0,93,0.00,,,0.02,Wunderground v.1.15,2013-07-27 00:29:00,
2013-07-26 20:34:00,77.6,75.4,30.01,West,266,0.0,2.0,93,0.00,,,0.02,Wunderground v.1.15,2013-07-27 00:34:00,
2013-07-26 20:39:00,77.7,75.5,30.01,West,272,0.0,2.0,93,0.00,,,0.02,Wunderground v.1.15,2013-07-27 00:39:00,
2013-07-26 20:44:00,77.8,75.3,30.00,West,273,0.0,0.0,92,0.00,,,0.02,Wunderground v.1.15,2013-07-27 00:44:00,
2013-07-26 20:49:00,77.8,75.3,30.00,West,278,0.0,0.0,92,0.00,,,0.02,Wunderground v.1.15,2013-07-27 00:49:00,
2013-07-26 20:54:00,77.9,75.7,30.00,West,266,0.0,1.0,93,0.00,,,0.02,Wunderground v.1.15,2013-07-27 00:54:00,
2013-07-26 20:59:00,78.2,75.7,30.00,SW,228,0.0,1.0,92,0.00,,,0.02,Wunderground v.1.15,2013-07-27 00:59:00,
2013-07-26 21:04:00,78.4,75.9,30.00,West,267,1.0,1.0,92,0.00,,,0.02,Wunderground v.1.15,2013-07-27 01:04:00,
2013-07-26 21:09:00,79.0,75.5,30.01,West,265,1.0,4.0,89,0.00,,,0.02,Wunderground v.1.15,2013-07-27 01:09:00,
2013-07-26 21:14:00,79.8,75.6,30.01,West,262,1.0,2.0,87,0.00,,,0.02,Wunderground v.1.15,2013-07-27 01:14:00,
2013-07-26 21:19:00,80.1,75.9,30.02,WSW,243,0.0,2.0,87,0.00,,,0.02,Wunderground v.1.15,2013-07-27 01:19:00,
2013-07-26 21:24:00,80.1,75.9,30.02,WSW,246,0.0,2.0,87,0.00,,,0.02,Wunderground v.1.15,2013-07-27 01:24:00,
2013-07-26 21:29:00,80.0,75.8,30.02,South,169,0.0,2.0,87,0.00,,,0.02,Wunderground v.1.15,2013-07-27 01:29:00,
2013-07-26 21:34:00,79.8,75.6,30.02,SSW,203,0.0,1.0,87,0.00,,,0.02,Wunderground v.1.15,2013-07-27 01:34:00,
2013-07-26 21:39:00,79.7,75.5,30.02,SSE,159,0.0,1.0,87,0.00,,,0.02,Wunderground v.1.15,2013-07-27 01:39:00,
2013-07-26 21:44:00,79.8,75.9,30.03,SW,215,0.0,1.0,88,0.00,,,0.02,Wunderground v.1.15,2013-07-27 01:44:00,
2013-07-26 21:49:00,79.9,76.4,30.03,West,265,0.0,1.0,89,0.00,,,0.02,Wunderground v.1.15,2013-07-27 01:49:00,
2013-07-26 21:54:00,79.9,76.0,30.03,West,264,0.0,0.0,88,0.00,,,0.02,Wunderground v.1.15,2013-07-27 01:54:00,
2013-07-26 21:59:00,79.8,75.9,30.02,West,264,0.0,0.0,88,0.00,,,0.02,Wunderground v.1.15,2013-07-27 01:59:00,
2013-07-26 22:04:00,79.9,76.0,30.03,SW,217,0.0,1.0,88,0.00,,,0.02,Wunderground v.1.15,2013-07-27 02:04:00,
2013-07-26 22:09:00,79.9,76.0,30.03,SSW,208,0.0,1.0,88,0.00,,,0.02,Wunderground v.1.15,2013-07-27 02:09:00,
2013-07-26 22:14:00,80.1,76.2,30.02,WSW,243,0.0,2.0,88,0.00,,,0.02,Wunderground v.1.15,2013-07-27 02:14:00,
2013-07-26 22:19:00,80.4,76.2,30.03,South,174,0.0,2.0,87,0.00,,,0.02,Wunderground v.1.15,2013-07-27 02:19:00,
2013-07-26 22:24:00,80.7,76.1,30.02,West,267,0.0,1.0,86,0.00,,,0.02,Wunderground v.1.15,2013-07-27 02:24:00,
2013-07-26 22:29:00,80.8,75.9,30.02,West,271,0.0,1.0,85,0.00,,,0.02,Wunderground v.1.15,2013-07-27 02:29:00,
2013-07-26 22:34:00,80.9,76.0,30.03,WNW,288,1.0,2.0,85,0.00,,,0.02,Wunderground v.1.15,2013-07-27 02:34:00,
2013-07-26 22:39:00,81.1,75.8,30.02,West,271,3.0,4.0,84,0.00,,,0.02,Wunderground v.1.15,2013-07-27 02:39:00,
2013-07-26 22:44:00,81.4,75.7,30.02,WNW,285,1.0,4.0,83,0.00,,,0.02,Wunderground v.1.15,2013-07-27 02:44:00,
2013-07-26 22:49:00,81.5,75.8,30.02,WNW,291,0.0,4.0,83,0.00,,,0.02,Wunderground v.1.15,2013-07-27 02:49:00,
2013-07-26 22:54:00,81.6,75.9,30.03,West,269,1.0,2.0,83,0.00,,,0.02,Wunderground v.1.15,2013-07-27 02:54:00,
2013-07-26 22:59:00,81.7,76.0,30.03,West,277,0.0,3.0,83,0.00,,,0.02,Wunderground v.1.15,2013-07-27 02:59:00,
2013-07-26 23:04:00,81.8,76.1,30.03,West,266,0.0,2.0,83,0.00,,,0.02,Wunderground v.1.15,2013-07-27 03:04:00,
2013-07-26 23:09:00,81.9,76.2,30.03,West,266,0.0,2.0,83,0.00,,,0.02,Wunderground v.1.15,2013-07-27 03:09:00,
2013-07-26 23:14:00,81.9,76.2,30.03,WSW,252,0.0,0.0,83,0.00,,,0.02,Wunderground v.1.15,2013-07-27 03:14:00,
2013-07-26 23:19:00,81.9,76.2,30.03,WSW,252,0.0,0.0,83,0.00,,,0.02,Wunderground v.1.15,2013-07-27 03:19:00,
2013-07-26 23:24:00,81.8,76.1,30.03,WSW,252,0.0,0.0,83,0.00,,,0.02,Wunderground v.1.15,2013-07-27 03:24:00,
2013-07-26 23:29:00,81.7,76.0,30.04,SW,232,0.0,0.0,83,0.00,,,0.02,Wunderground v.1.15,2013-07-27 03:29:00,
2013-07-26 23:34:00,81.7,76.0,30.04,SW,232,0.0,0.0,83,0.00,,,0.02,Wunderground v.1.15,2013-07-27 03:34:00,
2013-07-26 23:39:00,81.6,75.9,30.03,SW,232,0.0,0.0,83,0.00,,,0.02,Wunderground v.1.15,2013-07-27 03:39:00,
2013-07-26 23:44:00,81.6,76.3,30.03,SW,231,0.0,0.0,84,0.00,,,0.02,Wunderground v.1.15,2013-07-27 03:44:00,
2013-07-26 23:49:00,81.6,75.9,30.03,SW,232,0.0,0.0,83,0.00,,,0.02,Wunderground v.1.15,2013-07-27 03:49:00,
2013-07-26 23:54:00,81.7,76.4,30.03,WSW,256,1.0,1.0,84,0.00,,,0.02,Wunderground v.1.15,2013-07-27 03:54:00,
2013-07-26 23:59:00,81.8,76.1,30.03,West,260,0.0,1.0,83,0.00,,,0.02,Wunderground v.1.15,2013-07-27 03:59:00,